FW7029 Weather Reports


time (UTC)temp
C
wind
direction
speed
KPH
gust
KPH
rain 1hr
cm
rain 24hr
cm
rain mn
cm
humidity
%
barometer
mb
20260505153118 1 290 1.6 1.6 0.00 0.53 0.53 96 1015.4
20260505152614 1 332 0.0 0.0 0.00 0.53 0.53 96 1015.6
20260505152110 1 315 0.0 0.0 0.18 0.53 0.53 96 1015.6
20260505151605 1 261 0.0 0.0 0.18 0.53 0.53 96 1015.5
20260505151103 1 310 0.0 0.0 0.00 0.51 0.51 96 1015.5
20260505150559 1 312 0.0 0.0 0.00 0.51 0.51 96 1015.5
20260505140525 0 315 0.0 0.0 0.00 0.48 0.48 96 1015.7
20260505124938 0 300 4.8 8.0 0.00 0.41 0.41 96 1014.7
20260505124435 0 327 0.0 0.0 0.00 0.41 0.41 96 1014.6
20260505123931 0 290 1.6 1.6 0.00 0.41 0.41 96 1014.7
20260505123428 0 297 3.2 4.8 0.18 0.41 0.41 96 1014.6
20260505122923 0 291 0.0 0.0 0.18 0.41 0.41 96 1014.6
20260505122421 0 323 0.0 1.6 0.00 0.38 0.38 96 1014.6
20260505121918 1 313 4.8 8.0 0.00 0.38 0.38 96 1014.7
20260505121415 1 299 1.6 3.2 0.00 0.38 0.38 96 1014.4
20260505120910 1 309 8.0 11.3 0.00 0.38 0.38 95 1014.4
20260505120407 1 19 0.0 1.6 0.00 0.38 0.38 95 1014.4
20260505115906 1 356 1.6 3.2 0.13 0.38 0.38 95 1014.3
20260505115403 1 24 1.6 3.2 0.13 0.38 0.38 95 1014.2
20260505114901 1 322 0.0 1.6 0.00 0.36 0.36 95 1014.2
20260505114357 1 41 0.0 0.0 0.00 0.36 0.36 95 1014.4
20260505113853 1 61 1.6 3.2 0.00 0.36 0.36 95 1014.3
20260505113350 1 337 0.0 0.0 0.18 0.36 0.36 95 1014.1
20260505112846 1 201 0.0 0.0 0.30 0.36 0.36 94 1014.0
20260505112344 1 336 1.6 4.8 0.43 0.33 0.33 94 1014.2
20260505111839 1 282 1.6 4.8 0.30 0.28 0.28 93 1013.8
20260505111334 2 98 3.2 3.2 0.18 0.25 0.25 93 1014.0
20260505110831 2 333 0.0 1.6 0.13 0.23 0.23 94 1014.0
20260505110328 2 148 0.0 1.6 0.13 0.23 0.23 94 1014.0
20260505101803 3 94 1.6 1.6 0.00 0.15 0.15 94 1013.1
20260505101258 3 153 1.6 3.2 0.00 0.15 0.15 94 1012.9
20260505100755 3 315 3.2 4.8 0.00 0.15 0.15 95 1012.7
20260505100251 3 329 4.8 9.7 0.18 0.15 0.15 95 1012.4
20260505095747 3 280 1.6 3.2 0.18 0.15 0.15 95 1012.8
20260505095245 3 200 3.2 4.8 0.18 0.13 0.13 95 1012.7
20260505094740 3 193 1.6 1.6 0.18 0.13 0.13 95 1012.4
20260505094237 3 14 0.0 0.0 0.13 0.10 0.10 95 1012.4
20260505093733 4 345 4.8 8.0 0.30 0.10 0.10 95 1012.5
20260505093231 4 323 1.6 3.2 0.18 0.08 0.08 95 1012.8
20260505092728 4 314 1.6 4.8 0.18 0.08 0.08 95 1012.5
20260505092227 4 46 4.8 8.0 0.00 0.05 0.05 95 1012.4
20260505091723 4 298 8.0 14.5 0.00 0.05 0.05 94 1012.3
20260505091221 4 337 6.4 16.1 0.00 0.05 0.05 94 1012.7
20260505090718 4 185 0.0 1.6 0.00 0.05 0.05 94 1012.2
20260505090217 5 316 6.4 11.3 0.00 0.05 0.05 94 1012.1
20260505085714 5 70 3.2 9.7 0.00 0.05 0.05 94 1012.2
20260505085212 5 20 0.0 0.0 0.00 0.05 0.05 94 1012.4
20260505084709 5 47 1.6 1.6 0.00 0.05 0.05 93 1012.2
20260505084208 5 158 0.0 1.6 0.00 0.05 0.05 93 1012.4
20260505083704 5 6 1.6 1.6 0.00 0.05 0.05 93 1012.7
20260505083201 5 302 1.6 3.2 0.00 0.05 0.05 92 1012.2
20260505082657 5 200 0.0 0.0 0.13 0.05 0.05 92 1012.4
20260505082154 6 123 0.0 1.6 0.30 0.05 0.05 92 1012.8
20260505081650 6 89 1.6 3.2 0.30 0.05 0.05 92 1012.8
20260505081148 7 126 3.2 3.2 0.00 0.00 0.00 95 1012.4
20260505080645 7 334 0.0 0.0 0.00 0.00 0.00 95 1012.4
20260505080140 6 338 0.0 0.0 0.00 0.00 0.00 95 1012.3
20260505075637 6 336 0.0 0.0 0.00 0.00 0.00 95 1012.1
20260505075133 6 264 0.0 0.0 0.00 0.00 0.00 95 1012.1
20260505074630 6 264 0.0 0.0 0.00 0.00 0.00 95 1012.0
20260505074127 6 264 0.0 0.0 0.00 0.00 0.00 95 1012.2
20260505073625 6 264 0.0 0.0 0.00 0.00 0.00 95 1012.3
20260505073123 6 264 0.0 0.0 0.00 0.00 0.00 95 1012.4
20260505072618 6 264 0.0 0.0 0.00 0.00 0.00 95 1012.2
20260505072115 6 264 0.0 0.0 0.00 0.00 0.00 95 1012.1
20260505071611 6 264 0.0 0.0 0.00 0.00 0.00 94 1012.4
20260505071109 6 264 0.0 0.0 0.00 0.00 0.00 94 1012.4
20260505070606 6 264 0.0 0.0 0.00 0.00 0.00 94 1012.4
20260505065558 6 264 0.0 0.0 0.00 0.00 0.00 94 1012.0
20260505065055 6 264 0.0 0.0 0.00 0.00 0.00 94 1012.1
20260505064551 6 264 0.0 0.0 0.00 0.00 0.00 94 1012.2
20260505064050 6 264 0.0 0.0 0.00 0.00 0.00 94 1012.2
20260505063547 6 264 0.0 0.0 0.00 0.00 0.00 95 1012.4
20260505063043 6 264 0.0 0.0 0.00 0.00 0.00 95 1012.3
20260505062540 6 264 0.0 0.0 0.00 0.00 0.00 95 1012.2
20260505062037 6 264 0.0 0.0 0.00 0.00 0.00 95 1012.3
20260505061534 6 264 0.0 0.0 0.00 0.00 0.00 95 1012.2
20260505061032 6 264 0.0 0.0 0.00 0.00 0.00 95 1012.3
20260505060529 6 264 0.0 0.0 0.00 0.00 0.00 95 1012.5
20260505060026 6 264 0.0 0.0 0.00 0.36 0.36 95 1012.2
20260505055521 6 264 0.0 0.0 0.00 0.36 0.36 94 1012.5
20260505055018 6 264 0.0 0.0 0.00 0.36 0.36 94 1012.4
20260505054516 6 264 0.0 0.0 0.00 0.36 0.36 94 1012.4
20260505054014 6 264 0.0 0.0 0.00 0.36 0.36 94 1012.5
20260505053510 6 264 0.0 0.0 0.00 0.36 0.36 94 1012.1
20260505053007 6 264 0.0 0.0 0.00 0.36 0.36 94 1012.2
20260505052504 6 264 0.0 0.0 0.00 0.36 0.36 93 1012.3
20260505052001 6 264 0.0 0.0 0.00 0.36 0.36 93 1012.3
20260505051458 6 264 0.0 0.0 0.00 0.36 0.36 93 1012.3
20260505050956 6 264 0.0 0.0 0.00 0.36 0.36 93 1012.4
20260505050454 6 264 0.0 0.0 0.00 0.36 0.36 92 1012.5
20260505041422 7 282 0.0 1.6 0.00 0.36 0.36 92 1012.7
20260505040919 7 286 0.0 1.6 0.00 0.36 0.36 92 1012.9
20260505040416 7 293 0.0 0.0 0.13 0.36 0.36 92 1012.9
20260505035913 7 290 1.6 1.6 0.13 0.36 0.36 91 1012.8
20260505035409 7 262 0.0 0.0 0.43 0.36 0.36 91 1012.5
20260505034907 7 286 0.0 0.0 0.48 0.33 0.33 90 1012.5
20260505034403 7 276 0.0 0.0 0.30 0.28 0.28 90 1012.8
20260505033900 7 282 0.0 0.0 0.30 0.25 0.25 89 1012.7
20260505033357 7 285 1.6 1.6 0.30 0.23 0.23 88 1013.0
20260505032855 7 290 3.2 4.8 0.48 0.20 0.20 88 1012.9
20260505032351 7 303 4.8 8.0 0.48 0.18 0.18 86 1012.8
20260505031848 7 300 4.8 4.8 0.30 0.13 0.13 86 1012.9
20260505031345 8 285 1.6 3.2 0.30 0.10 0.10 86 1012.4
20260505030842 8 278 4.8 8.0 0.30 0.08 0.08 85 1012.5
20260505030338 8 269 1.6 3.2 0.30 0.05 0.05 83 1012.2
20260505025833 8 289 0.0 0.0 0.13 0.03 0.03 81 1012.2
20260505025331 9 309 1.6 1.6 0.00 0.00 0.00 76 1011.8
20260505024830 9 291 3.2 4.8 0.00 0.00 0.00 72 1012.0
20260505024327 10 331 6.4 9.7 0.00 0.00 0.00 69 1011.7
20260505023824 10 321 3.2 4.8 0.00 0.00 0.00 68 1011.7
20260505023321 10 326 0.0 1.6 0.00 0.00 0.00 68 1011.5
20260505022818 10 356 1.6 3.2 0.00 0.00 0.00 67 1011.4
20260505022315 10 270 4.8 8.0 0.00 0.00 0.00 67 1011.5
20260505021813 10 344 0.0 0.0 0.00 0.00 0.00 67 1011.4
20260505021309 10 225 0.0 0.0 0.00 0.00 0.00 66 1011.2
20260505020805 10 112 0.0 1.6 0.00 0.00 0.00 64 1011.2
20260505020301 10 32 1.6 1.6 0.00 0.00 0.00 64 1011.2
20260505015758 10 342 1.6 1.6 0.00 0.00 0.00 62 1011.2
20260505015255 11 10 1.6 3.2 0.00 0.00 0.00 61 1011.5
20260505014752 11 145 1.6 1.6 0.00 0.00 0.00 57 1011.5
20260505014249 11 322 1.6 1.6 0.00 0.00 0.00 53 1011.2
20260505013745 11 306 0.0 0.0 0.00 0.00 0.00 52 1010.9
20260505013243 11 307 0.0 0.0 0.00 0.00 0.00 51 1010.7
20260505012741 12 302 0.0 0.0 0.00 0.00 0.00 52 1010.8
20260505012238 12 109 0.0 0.0 0.00 0.00 0.00 53 1010.9
20260505011733 12 110 0.0 0.0 0.00 0.00 0.00 51 1011.0
20260505011231 12 111 0.0 0.0 0.00 0.00 0.00 52 1010.7
20260505010726 12 122 0.0 0.0 0.00 0.00 0.00 53 1010.9
20260505010223 12 116 0.0 0.0 0.00 0.00 0.00 52 1011.0
20260505005719 12 169 0.0 0.0 0.00 0.00 0.00 51 1010.8
20260505005217 12 116 0.0 1.6 0.00 0.00 0.00 51 1010.7
20260505004714 12 128 0.0 0.0 0.00 0.00 0.00 51 1010.8
20260505004210 12 0 3.2 3.2 0.00 0.00 0.00 49 1010.8
20260505003707 13 306 0.0 0.0 0.00 0.00 0.00 48 1010.9
20260505003205 13 130 1.6 1.6 0.00 0.00 0.00 46 1010.7
20260505002701 13 110 0.0 0.0 0.00 0.00 0.00 44 1010.7
20260505002159 13 318 0.0 0.0 0.00 0.00 0.00 44 1010.8
20260505001656 13 292 0.0 1.6 0.00 0.00 0.00 44 1010.8
20260505001153 13 286 1.6 1.6 0.00 0.00 0.00 43 1010.3
20260505000650 13 309 0.0 0.0 0.00 0.00 0.00 43 1010.4
20260505000148 14 95 0.0 1.6 0.00 0.00 0.00 44 1010.2
20260504235644 14 322 4.8 4.8 0.00 0.00 0.00 42 1010.4
20260504235141 14 317 4.8 4.8 0.00 0.00 0.00 41 1010.2
20260504234638 15 318 1.6 1.6 0.00 0.00 0.00 41 1010.1
20260504234136 15 317 1.6 3.2 0.00 0.00 0.00 40 1010.2
20260504233631 15 280 0.0 0.0 0.00 0.00 0.00 40 1010.1
20260504233127 15 349 0.0 1.6 0.00 0.00 0.00 40 1009.7
20260504232625 15 333 3.2 4.8 0.00 0.00 0.00 40 1009.9
20260504232122 15 339 6.4 9.7 0.00 0.00 0.00 39 1009.9
20260504231618 15 19 1.6 3.2 0.00 0.00 0.00 40 1009.9
20260504231109 15 245 0.0 1.6 0.00 0.00 0.00 39 1010.3
20260504230604 15 305 0.0 1.6 0.00 0.00 0.00 39 1009.8
20260504230104 15 302 1.6 3.2 0.00 0.00 0.00 39 1010.2
20260504225601 15 31 0.0 1.6 0.00 0.00 0.00 39 1009.9
20260504225058 15 323 6.4 12.9 0.00 0.00 0.00 38 1009.9
20260504224554 15 271 0.0 1.6 0.00 0.00 0.00 39 1009.9
20260504224052 15 58 4.8 9.7 0.00 0.00 0.00 39 1010.1
20260504223548 15 284 3.2 4.8 0.00 0.00 0.00 39 1009.9
20260504223044 15 15 4.8 9.7 0.00 0.00 0.00 40 1010.1
20260504222541 15 288 4.8 8.0 0.00 0.00 0.00 38 1009.9
20260504222039 15 29 1.6 1.6 0.00 0.00 0.00 40 1009.9
20260504221536 15 106 1.6 3.2 0.00 0.00 0.00 39 1009.7
20260504221032 15 292 4.8 8.0 0.00 0.00 0.00 39 1009.6
20260504220529 15 301 0.0 1.6 0.00 0.00 0.00 39 1009.6
20260504220027 15 305 8.0 12.9 0.00 0.00 0.00 37 1009.4
20260504215523 15 107 1.6 4.8 0.00 0.00 0.00 36 1009.2
20260504215020 16 340 3.2 3.2 0.00 0.00 0.00 36 1009.1
20260504214516 16 90 3.2 3.2 0.00 0.00 0.00 34 1009.1
20260504214012 16 332 1.6 1.6 0.00 0.00 0.00 34 1008.9
20260504213509 16 205 4.8 4.8 0.00 0.00 0.00 34 1008.6
20260504213007 17 338 3.2 4.8 0.00 0.00 0.00 33 1009.0
20260504212502 18 7 3.2 3.2 0.00 0.00 0.00 29 1009.0
20260504211959 19 326 3.2 4.8 0.00 0.00 0.00 24 1008.6
20260504211456 19 13 1.6 1.6 0.00 0.00 0.00 24 1008.6
20260504210953 19 162 1.6 1.6 0.00 0.00 0.00 24 1008.5
20260504210450 19 186 1.6 1.6 0.00 0.00 0.00 25 1008.5
20260504205947 18 319 0.0 0.0 0.00 0.00 0.00 28 1008.8
20260504205444 18 282 0.0 0.0 0.00 0.00 0.00 29 1008.9
20260504204943 18 135 1.6 3.2 0.00 0.00 0.00 28 1008.8
20260504204441 18 196 1.6 1.6 0.00 0.00 0.00 29 1009.0
20260504203939 17 327 0.0 0.0 0.00 0.00 0.00 30 1009.2
20260504203437 17 284 0.0 0.0 0.00 0.00 0.00 35 1009.2
20260504202933 17 235 0.0 1.6 0.00 0.00 0.00 33 1009.7
20260504202429 17 112 3.2 3.2 0.00 0.00 0.00 32 1009.6
20260504201926 17 308 0.0 0.0 0.00 0.00 0.00 35 1009.6
20260504201423 16 146 3.2 3.2 0.00 0.00 0.00 35 1010.1
20260504200921 16 200 0.0 1.6 0.00 0.00 0.00 35 1009.5
20260504200418 15 114 3.2 3.2 0.00 0.00 0.00 38 1009.8
20260504195914 15 98 1.6 1.6 0.00 0.00 0.00 38 1009.8
20260504195410 15 177 0.0 1.6 0.00 0.00 0.00 42 1009.9
20260504194907 14 141 3.2 4.8 0.00 0.00 0.00 42 1010.1
20260504194402 14 120 1.6 1.6 0.00 0.00 0.00 47 1010.1
20260504193859 15 237 1.6 3.2 0.00 0.00 0.00 45 1010.4
20260504193356 16 135 4.8 4.8 0.00 0.00 0.00 40 1010.3
20260504192855 16 102 3.2 4.8 0.00 0.00 0.00 34 1010.2
20260504192352 16 191 1.6 8.0 0.00 0.00 0.00 29 1009.7
20260504191850 17 249 4.8 8.0 0.00 0.00 0.00 28 1009.7
20260504191348 17 63 1.6 3.2 0.00 0.00 0.00 27 1009.4
20260504190843 18 322 3.2 4.8 0.00 0.00 0.00 24 1009.2
20260504190339 18 331 1.6 1.6 0.00 0.00 0.00 20 1009.1
20260504185836 19 147 1.6 1.6 0.00 0.00 0.00 20 1009.1
20260504185333 20 190 3.2 3.2 0.00 0.00 0.00 21 1008.6
20260504184829 20 180 0.0 0.0 0.00 0.00 0.00 21 1008.9
20260504184325 20 322 0.0 0.0 0.00 0.00 0.00 22 1008.4
20260504183821 20 279 0.0 0.0 0.00 0.00 0.00 21 1008.8
20260504183319 20 315 0.0 0.0 0.00 0.00 0.00 20 1008.6
20260504182816 20 356 0.0 1.6 0.00 0.00 0.00 23 1008.9
20260504182314 20 44 0.0 0.0 0.00 0.00 0.00 21 1008.6
20260504181811 20 347 1.6 1.6 0.00 0.00 0.00 21 1008.6
20260504181308 20 284 3.2 4.8 0.00 0.00 0.00 20 1008.9
20260504180807 20 307 1.6 1.6 0.00 0.00 0.00 20 1008.8
20260504180305 20 293 0.0 1.6 0.00 0.00 0.00 20 1009.1
20260504175803 20 247 3.2 4.8 0.00 0.00 0.00 21 1009.0
20260504175259 20 314 3.2 3.2 0.00 0.00 0.00 21 1008.9
20260504174757 21 300 4.8 4.8 0.00 0.00 0.00 21 1009.1
20260504174254 22 336 9.7 12.9 0.00 0.00 0.00 19 1009.7
20260504173751 22 283 4.8 8.0 0.00 0.00 0.00 20 1009.5
20260504173248 22 231 4.8 4.8 0.00 0.00 0.00 20 1009.5
20260504172745 22 281 4.8 4.8 0.00 0.00 0.00 21 1009.6
20260504172241 22 277 1.6 3.2 0.00 0.00 0.00 22 1009.8
20260504171737 22 312 3.2 11.3 0.00 0.00 0.00 22 1009.8
20260504171234 22 310 0.0 0.0 0.00 0.00 0.00 22 1009.7
20260504170731 21 319 6.4 8.0 0.00 0.00 0.00 21 1009.8
20260504170228 22 303 4.8 8.0 0.00 0.00 0.00 22 1009.7
20260504160147 17 163 0.0 1.6 0.00 0.00 0.00 27 1010.4